CEST,Max TemperatureF,Mean TemperatureF,Min TemperatureF,Max Dew PointF,MeanDew PointF,Min DewpointF,Max Humidity, Mean Humidity, Min Humidity, Max Sea Level PressureIn, Mean Sea Level PressureIn, Min Sea Level PressureIn, Max VisibilityMiles, Mean VisibilityMiles, Min VisibilityMiles, Max Wind SpeedMPH, Mean Wind SpeedMPH, Max Gust SpeedMPH,PrecipitationIn, CloudCover, Events, WindDirDegrees
2013-3-1,59,52,44,43,40,37,81,63,48,30.12,29.98,29.86,6,6,5,10,6,,0.00,4,,10
2013-3-2,55,52,46,43,41,36,71,64,58,29.98,29.84,29.77,6,6,6,24,12,32,0.00,5,Rain,42
2013-3-3,60,51,42,43,35,25,87,58,27,30.06,30.01,29.98,,,,10,6,,0.00,,,354
2013-3-4,60,48,37,45,41,34,93,72,36,30.18,30.11,30.06,6,6,5,9,3,,0.00,1,,343
2013-3-5,62,52,41,45,41,36,93,66,37,30.18,30.12,30.01,6,6,4,10,4,,0.00,6,Rain,326
2013-3-6,64,58,51,54,47,39,94,70,40,29.98,29.84,29.74,6,6,3,16,7,32,0.00,6,Rain,165
2013-3-7,60,58,57,57,55,54,100,91,82,29.80,29.76,29.74,6,3,1,9,6,,0.00,6,Rain,190
2013-3-8,60,58,55,55,55,52,100,90,77,29.80,29.75,29.65,6,4,1,15,8,25,0.00,6,Fog-Rain,191
2013-3-9,62,58,53,55,52,50,94,79,63,29.83,29.76,29.71,6,6,4,13,7,23,0.00,4,,202
2013-3-10,62,56,51,55,53,48,94,84,63,29.74,29.68,29.62,6,5,3,17,9,,0.00,4,Rain-Thunderstorm,203
2013-3-11,62,58,55,54,51,46,88,78,63,29.65,29.61,29.59,6,6,6,14,8,,0.00,4,Rain,209
2013-3-12,60,55,50,52,48,45,88,78,59,29.62,29.57,29.50,6,6,3,21,8,34,0.00,5,Rain-Thunderstorm,232
2013-3-13,57,54,50,52,48,46,94,85,72,29.53,29.44,29.27,6,5,2,15,8,29,0.00,5,Rain,194
2013-3-14,51,48,46,48,45,41,94,86,71,29.27,29.17,29.09,6,6,2,9,5,,0.00,6,Rain,43
2013-3-15,48,42,35,45,33,27,93,70,53,29.86,29.56,29.30,6,5,2,17,8,26,0.00,6,Rain,58
2013-3-16,51,44,37,32,28,21,70,53,30,30.12,30.04,29.86,6,6,6,8,5,,0.00,4,,20
2013-3-17,57,46,35,45,35,28,76,61,44,30.12,30.02,29.86,6,6,5,8,4,,0.00,4,,22
2013-3-18,62,56,50,55,48,41,94,73,55,29.86,29.68,29.56,6,5,4,22,9,37,0.00,6,Rain,200
2013-3-19,60,53,46,46,43,41,82,65,48,29.83,29.78,29.71,6,6,6,16,7,,0.00,1,,255
2013-3-20,64,53,42,48,40,30,94,68,30,29.83,29.75,29.68,6,5,1,8,3,,0.00,5,Rain,351
2013-3-21,62,55,48,50,46,37,100,73,42,29.95,29.78,29.62,6,5,1,23,8,32,0.00,4,,284
2013-3-22,60,51,42,48,45,37,93,75,59,29.95,29.91,29.89,6,6,5,14,4,,0.00,1,,192
2013-3-23,62,53,44,46,43,37,93,68,39,29.95,29.87,29.80,6,5,4,9,3,,0.00,2,,296
2013-3-24,73,60,48,48,43,30,82,54,22,29.77,29.60,29.47,6,6,6,15,5,28,0.00,4,,290
2013-3-25,62,58,55,55,51,48,94,77,59,29.50,29.39,29.33,6,6,3,15,8,26,0.00,5,Rain,223
2013-3-26,59,55,51,52,49,46,94,78,63,29.59,29.55,29.50,6,6,3,17,8,,0.00,6,Rain,230
2013-3-27,60,54,48,54,49,45,94,82,63,29.83,29.70,29.59,6,6,5,15,6,,0.00,4,,201
2013-3-28,60,56,53,55,51,48,88,81,72,29.92,29.86,29.80,6,6,3,12,4,,0.00,5,Rain,271
2013-3-29,66,58,51,55,54,50,100,81,56,29.89,29.85,29.80,6,5,1,13,5,,0.00,4,Fog-Rain,196
2013-3-30,62,56,51,55,54,52,100,88,72,29.80,29.67,29.53,6,4,2,16,7,28,0.00,5,Rain,193
2013-3-31,60,58,55,54,50,45,88,75,55,29.71,29.63,29.53,6,6,3,23,14,36,0.00,4,Rain,228
2013-4-1,,,,,,,,,,,,,,,,,,,,,,